Zurück zum Katalog

THORAD DELTA 1 DEB

AktivLEO
NORAD 19183·DEBRIS·🇺🇸 United States

Gestartet Nov 15, 1974 von Vandenberg Space Force Base

Loading…

Nächste Überflüge (nächste 24 Stunden)

TLE

AktuellSource: Space-Track

Epoche: Sep 13, 2026, 03:07 UTC

1 19183U 74089FD  26256.13048148  .00000589  00000-0  12991-2 0  9996
2 19183 103.5155 126.6811 0183343 103.3274  48.8298 13.29043110792417

Verfolge THORAD DELTA 1 DEB in Echtzeit mit AllMySat

Download on the App Store